• In Uzbekistan
  • List of Countries
  • For 7 days
  • Water Temperature
  • Satellite Maps
  • Weather Map
  • Weather Widgets
  • user-avatar
    Login

    Hourly Weather Megri

    Today, 28 March, Tuesday

    Time Temperature Precipitation Wind Pressure Humidity
    00:00 +2°C° 0 mm 3 mps 619 mmHg 69%
    01:00 +2°C° 0 mm 3 mps 618 mmHg 71%
    02:00 +2°C° 0 mm 3 mps 618 mmHg 72%
    03:00 +2°C° 0 mm 3 mps 618 mmHg 74%
    04:00 +2°C° 0 mm 3 mps 618 mmHg 74%
    05:00 +1°C° 0 mm 3 mps 618 mmHg 75%
    06:00 +1°C° 0 mm 3 mps 618 mmHg 75%
    07:00 +3°C° 0.1 mm 3 mps 619 mmHg 68%
    08:00 +5°C° 0.1 mm 4 mps 619 mmHg 61%
    09:00 +6°C° 0.1 mm 5 mps 620 mmHg 55%
    10:00 +7°C° 0.2 mm 5 mps 620 mmHg 54%
    11:00 +8°C° 0.2 mm 5 mps 620 mmHg 53%
    12:00 +8°C° 0.2 mm 6 mps 620 mmHg 51%
    13:00 +8°C° 0.3 mm 5 mps 620 mmHg 52%
    14:00 +8°C° 0.3 mm 5 mps 620 mmHg 52%
    15:00 +9°C° 0.3 mm 5 mps 620 mmHg 52%
    16:00 +8°C° 0.6 mm 4 mps 620 mmHg 57%
    17:00 +7°C° 0.6 mm 3 mps 620 mmHg 62%
    18:00 +6°C° 0.6 mm 2 mps 619 mmHg 67%
    19:00 +6°C° 0.6 mm 2 mps 620 mmHg 70%
    20:00 +5°C° 0.6 mm 2 mps 620 mmHg 73%
    21:00 +5°C° 0.6 mm 1 mps 620 mmHg 77%
    22:00 +5°C° 0.2 mm 1 mps 620 mmHg 78%
    23:00 +5°C° 0.2 mm 1 mps 620 mmHg 79%

    Tomorrow, 29 March, Wednesday

    Time Temperature Precipitation Wind Pressure Humidity
    00:00 +4°C° 0.2 mm 1 mps 620 mmHg 80%
    01:00 +3°C° 0 mm 2 mps 620 mmHg 81%
    02:00 +2°C° 0 mm 2 mps 620 mmHg 81%
    03:00 +2°C° 0 mm 2 mps 620 mmHg 82%
    04:00 +2°C° 0 mm 2 mps 620 mmHg 83%
    05:00 +2°C° 0 mm 2 mps 620 mmHg 83%
    06:00 +1°C° 0 mm 2 mps 620 mmHg 84%
    07:00 +3°C° 0 mm 2 mps 620 mmHg 79%
    08:00 +4°C° 0 mm 2 mps 621 mmHg 74%
    09:00 +5°C° 0 mm 3 mps 622 mmHg 69%
    10:00 +7°C° 0 mm 3 mps 622 mmHg 65%
    11:00 +8°C° 0 mm 3 mps 622 mmHg 61%
    12:00 +9°C° 0 mm 3 mps 622 mmHg 57%
    13:00 +8°C° 0 mm 4 mps 622 mmHg 54%
    14:00 +8°C° 0 mm 4 mps 622 mmHg 50%
    15:00 +10°C° 0 mm 4 mps 622 mmHg 47%
    16:00 +8°C° 0 mm 3 mps 622 mmHg 50%
    17:00 +7°C° 0 mm 2 mps 622 mmHg 53%
    18:00 +6°C° 0 mm 2 mps 622 mmHg 55%
    19:00 +5°C° 0 mm 2 mps 622 mmHg 58%
    20:00 +5°C° 0 mm 1 mps 622 mmHg 60%
    21:00 +4°C° 0 mm 1 mps 622 mmHg 63%
    22:00 +4°C° 0 mm 1 mps 622 mmHg 64%
    23:00 +3°C° 0 mm 1 mps 622 mmHg 65%

    Day after tomorrow, 30 March, Thursday

    Time Temperature Precipitation Wind Pressure Humidity
    00:00 +3°C° 0 mm 1 mps 622 mmHg 66%
    01:00 +2°C° 0 mm 1 mps 622 mmHg 67%
    02:00 +1°C° 0 mm 0 mps 622 mmHg 68%
    03:00 +1°C° 0 mm 0 mps 622 mmHg 69%
    04:00 +1°C° 0 mm 0 mps 622 mmHg 69%
    05:00 0°C° 0 mm 0 mps 622 mmHg 69%
    06:00 0°C° 0 mm 0 mps 622 mmHg 70%
    07:00 +3°C° 0 mm 0 mps 623 mmHg 62%
    08:00 +6°C° 0 mm 1 mps 624 mmHg 54%
    09:00 +8°C° 0 mm 1 mps 625 mmHg 46%
    10:00 +9°C° 0 mm 1 mps 625 mmHg 45%
    11:00 +10°C° 0 mm 1 mps 625 mmHg 44%
    12:00 +10°C° 0 mm 2 mps 625 mmHg 42%
    13:00 +12°C° 0 mm 2 mps 624 mmHg 42%
    14:00 +12°C° 0 mm 2 mps 624 mmHg 41%
    15:00 +11°C° 0 mm 3 mps 624 mmHg 41%
    16:00 +10°C° 0 mm 2 mps 623 mmHg 45%
    17:00 +9°C° 0 mm 2 mps 622 mmHg 49%
    18:00 +9°C° 0 mm 1 mps 622 mmHg 52%
    19:00 +8°C° 0 mm 1 mps 622 mmHg 54%
    20:00 +7°C° 0 mm 1 mps 622 mmHg 56%
    21:00 +6°C° 0 mm 1 mps 622 mmHg 57%
    22:00 +6°C° 0 mm 1 mps 622 mmHg 57%
    23:00 +5°C° 0 mm 1 mps 622 mmHg 56%

    31 March, Friday

    Time Temperature Precipitation Wind Pressure Humidity
    00:00 +5°C° 0 mm 1 mps 621 mmHg 56%
    01:00 +4°C° 0 mm 2 mps 621 mmHg 56%
    02:00 +3°C° 0 mm 2 mps 621 mmHg 57%
    03:00 +3°C° 0 mm 2 mps 621 mmHg 57%
    04:00 +3°C° 0 mm 2 mps 621 mmHg 58%
    05:00 +3°C° 0 mm 2 mps 621 mmHg 59%
    06:00 +3°C° 0 mm 2 mps 621 mmHg 59%
    07:00 +4°C° 0 mm 2 mps 622 mmHg 54%
    08:00 +6°C° 0 mm 2 mps 622 mmHg 48%
    09:00 +8°C° 0 mm 2 mps 623 mmHg 43%
    10:00 +9°C° 0 mm 2 mps 623 mmHg 42%
    11:00 +10°C° 0 mm 2 mps 623 mmHg 40%
    12:00 +12°C° 0 mm 2 mps 623 mmHg 39%
    13:00 +13°C° 0 mm 2 mps 623 mmHg 38%
    14:00 +13°C° 0 mm 1 mps 623 mmHg 37%
    15:00 +13°C° 0 mm 1 mps 623 mmHg 36%
    16:00 +12°C° 0 mm 1 mps 622 mmHg 41%
    17:00 +11°C° 0 mm 1 mps 622 mmHg 46%
    18:00 +9°C° 0 mm 2 mps 622 mmHg 51%
    19:00 +8°C° 0.2 mm 2 mps 622 mmHg 57%
    20:00 +8°C° 0.2 mm 2 mps 622 mmHg 63%
    21:00 +7°C° 0.2 mm 2 mps 622 mmHg 69%
    22:00 +6°C° 0.7 mm 2 mps 622 mmHg 72%
    23:00 +6°C° 0.7 mm 2 mps 622 mmHg 76%

    1 April, Saturday

    Time Temperature Precipitation Wind Pressure Humidity
    00:00 +5°C° 0.7 mm 2 mps 622 mmHg 79%
    01:00 +5°C° 0.3 mm 2 mps 621 mmHg 81%
    02:00 +4°C° 0.3 mm 2 mps 621 mmHg 83%
    03:00 +4°C° 0.3 mm 2 mps 621 mmHg 84%
    04:00 +4°C° 0.8 mm 2 mps 620 mmHg 85%
    05:00 +3°C° 0.8 mm 2 mps 620 mmHg 85%
    06:00 +3°C° 0.8 mm 2 mps 620 mmHg 85%
    07:00 +3°C° 1.1 mm 2 mps 620 mmHg 84%
    08:00 +4°C° 1.1 mm 2 mps 621 mmHg 83%
    09:00 +4°C° 1.1 mm 2 mps 621 mmHg 81%
    10:00 +5°C° 0.1 mm 2 mps 621 mmHg 79%
    11:00 +6°C° 0.1 mm 2 mps 621 mmHg 77%
    12:00 +7°C° 0.1 mm 2 mps 621 mmHg 74%
    13:00 +7°C° 0.1 mm 2 mps 621 mmHg 73%
    14:00 +8°C° 0.1 mm 2 mps 620 mmHg 72%
    15:00 +8°C° 0.1 mm 2 mps 620 mmHg 71%
    16:00 +8°C° 0.1 mm 2 mps 620 mmHg 73%
    17:00 +7°C° 0.1 mm 2 mps 620 mmHg 75%
    18:00 +6°C° 0.1 mm 2 mps 620 mmHg 77%
    19:00 +5°C° 0.2 mm 2 mps 620 mmHg 79%
    20:00 +3°C° 0.2 mm 3 mps 620 mmHg 81%
    21:00 +3°C° 0.2 mm 3 mps 619 mmHg 84%
    22:00 +2°C° 0.3 mm 3 mps 619 mmHg 84%
    23:00 +2°C° 0.3 mm 3 mps 619 mmHg 84%

    2 April, Sunday

    Time Temperature Precipitation Wind Pressure Humidity
    00:00 +2°C° 0.3 mm 3 mps 619 mmHg 84%
    01:00 +1°C° 0.5 mm 3 mps 618 mmHg 84%
    02:00 +1°C° 0.5 mm 3 mps 618 mmHg 84%
    03:00 -1°C° 0.5 mm 4 mps 618 mmHg 84%
    04:00 -1°C° 0.5 mm 4 mps 618 mmHg 85%
    05:00 -1°C° 0.5 mm 4 mps 618 mmHg 85%
    06:00 -2°C° 0.5 mm 4 mps 618 mmHg 85%
    07:00 -2°C° 1 mm 5 mps 618 mmHg 84%
    08:00 -2°C° 1 mm 5 mps 619 mmHg 83%
    09:00 -2°C° 1 mm 5 mps 619 mmHg 81%
    10:00 -2°C° 1.1 mm 5 mps 620 mmHg 81%
    11:00 -2°C° 1.1 mm 5 mps 620 mmHg 82%
    12:00 -4°C° 1.1 mm 5 mps 620 mmHg 82%
    13:00 -4°C° 0.6 mm 5 mps 620 mmHg 80%
    14:00 -4°C° 0.6 mm 5 mps 621 mmHg 79%
    15:00 -4°C° 0.6 mm 5 mps 621 mmHg 78%
    16:00 -4°C° 0.2 mm 5 mps 622 mmHg 79%
    17:00 -5°C° 0.2 mm 5 mps 622 mmHg 80%
    18:00 -4°C° 0.2 mm 4 mps 622 mmHg 81%
    19:00 -5°C° 0 mm 4 mps 623 mmHg 82%
    20:00 -5°C° 0 mm 3 mps 623 mmHg 83%
    21:00 -6°C° 0 mm 3 mps 623 mmHg 84%
    22:00 -6°C° 0 mm 3 mps 623 mmHg 84%
    23:00 -6°C° 0 mm 3 mps 623 mmHg 84%
    Show more